Regional Weather Roundup
Issued by NWS Little Rock, AR

Home | Current Version | Previous Version | Graphics & Text | Print | Product List | Glossary On
Versions: 1 2 3 4 5 6 7 8 9 10 11 12 13 14 15 16 17 18 19 20 21 22 23 24 25 26 27 28 29 30 31 32 33 34 35 36 37 38 39 40 41 42 43 44 45 46 47 48 49 50
167
ASUS44 KLZK 271905
RWRLZK

WEATHER ROUNDUP FOR ARKANSAS
NATIONAL WEATHER SERVICE LITTLE ROCK AR
200 PM CDT SAT MAY 27 2017

NOTE: "FAIR" INDICATES FEW OR NO CLOUDS BELOW 12,000 FEET WITH NO
SIGNIFICANT WEATHER AND/OR OBSTRUCTIONS TO VISIBILITY.

ARZ001-003-010-029-272000-
NORTHWEST ARKANSAS

CITY           SKY/WX    TMP DP  RH WIND       PRES   REMARKS
FAYETTEVILLE   MOSUNNY   85  73  67 S23G36    29.78F HX  91
FORT SMITH     MOSUNNY   88  69  53 S7        29.81F HX  92
HARRISON       MOSUNNY   86  70  58 S13G24    29.83F HX  90
BENTONVILLE    CLOUDY    84  72  65 S18G25    29.79F HX  89
ROGERS         PTSUNNY   86  72  62 S18G32    29.79F HX  92
SILOAM SPGS    PTSUNNY   84  72  65 S24G31    29.77F HX  89
HIGHFILL       MOSUNNY   87  73  62 S17G29    29.78F HX  94
SPRINGDALE     PTSUNNY   84  72  65 S23G31    29.81F HX  89
$$

ARZ004-005-016-272000-
NORTH CENTRAL ARKANSAS

CITY           SKY/WX    TMP DP  RH WIND       PRES   REMARKS
BATESVILLE     PTSUNNY   86  75  70 S8        29.86F HX  95
FLIPPIN        MOSUNNY   88  70  55 S8G16     29.78F HX  92
MTN HOME       SUNNY     86  72  62 S10       29.81  HX  92
$$

ARZ040-041-272000-
WEST CENTRAL ARKANSAS

CITY           SKY/WX    TMP DP  RH WIND       PRES   REMARKS
MENA           MOSUNNY   88  79  74 S7        29.87F HX 102
MOUNT IDA      PTSUNNY   86  72  62 MISG      29.86F HX  92
$$

ARZ009-017-025-026-028-272000-
NORTHEAST ARKANSAS

CITY           SKY/WX    TMP DP  RH WIND       PRES   REMARKS
JONESBORO      MOSUNNY   88  74  63 SW14G22   29.86F HX  96
NEWPORT        PTSUNNY   86  75  69 S18G24    29.86F HX  95
WALNUT RIDGE   PTSUNNY   88  73  62 S13       29.83F HX  96
BLYTHEVILLE    PTSUNNY   83  74  74 S13       29.88F HX  89
$$

ARZ022-023-033-042-044-272000-
CENTRAL ARKANSAS

CITY           SKY/WX    TMP DP  RH WIND       PRES   REMARKS
LITTLE ROCK    PTSUNNY   87  76  69 S12G22    29.87F HX  97
JACKSONVILLE   MOSUNNY   86  75  69 SW10      29.87F HX  96
CONWAY           N/A     86  75  70 SE8       29.85F HX  95
SEARCY         CLOUDY    85  77  77 SW7       29.89  HX  95
HOT SPRINGS    CLOUDY    86  75  69 S8        29.88F HX  95
RUSSELLVILLE   PTSUNNY   87  70  56 SW14G20   29.83F HX  92
CLINTON        FAIR      86  75  70 S12       29.83F HX  95
$$

ARZ036-272000-
EAST ARKANSAS

CITY           SKY/WX    TMP DP  RH WIND       PRES   REMARKS
WEST MEMPHIS   CLOUDY    84  75  74 SW10      29.88F HX  92
$$

ARZ050-053-066-070-073-272000-
SOUTHWEST ARKANSAS

CITY           SKY/WX    TMP DP  RH WIND       PRES   REMARKS
ARKADELPHIA    MOCLDY    87  76  69 S9        29.88F HX  97
CAMDEN         MOSUNNY   88  73  62 SW10      29.89F HX  96
TEXARKANA      CLOUDY    86  76  71 SW16G22   29.88F HX  96
EL DORADO      CLOUDY    86  76  71 S7        29.92F HX  96
DE QUEEN       PTSUNNY   86  76  71 SW9       29.84F HX  96
$$

ARZ056-057-069-272000-
SOUTHEAST ARKANSAS

CITY           SKY/WX    TMP DP  RH WIND       PRES   REMARKS
PINE BLUFF     MOSUNNY   88  74  63 S17G23    29.89F HX  96
STUTTGART      PTSUNNY   88  66  48 S15       29.90F HX  90
MONTICELLO     PTSUNNY   88  75  65 SW9G16    29.92F HX  97

$$






USA.gov is the U.S. government's official web portal to all federal, state and local government web resources and services.